Hollywood, FL

8:46 AM EDT on July 22, 2017 (GMT -0400)
North Perry

Weather History for KHWO - March, 2014

Change the Weather History Date:

Saturday, March 22, 2014

  Actual Average (KFLL) Record (KFLL)
Temperature  
Mean Temperature 78 °F -  
Max Temperature 84 °F 79 °F 93 °F (2003)
Min Temperature 71 °F 61 °F 41 °F (1924)
Cooling Degree Days 12    
Growing Degree Days 28 (Base 50)    
Moisture  
Dew Point 66 °F    
Average Humidity 72    
Maximum Humidity 96    
Minimum Humidity 34    
Precipitation  
Precipitation 0.04 in - - ()
Sea Level Pressure  
Sea Level Pressure 30.06 in    
Wind  
Wind Speed 10 mph (SSE)    
Max Wind Speed 14 mph    
Max Gust Speed 22 mph    
Visibility 10 miles    
Events Rain    
Averages and records for this station are not official NWS values.
T = Trace of Precipitation, MM = Missing Value Source: NWS Daily Summary

Daily Weather History Graph

Daily Weather History Graph

Search for Another Location

Airport or City:

Trip Planner

Search our weather history database for the weather conditions in past years. The results will help you decide how hot, cold, wet, or windy it might be!

Date:

Astronomy

Mar. 22, 2014 Rise Set
Actual Time 7:22 AM EDT 7:33 PM EDT
Civil Twilight 6:59 AM EDT 7:56 PM EDT
Nautical Twilight 6:32 AM EDT 8:23 PM EDT
Astronomical Twilight 6:06 AM EDT 8:50 PM EDT
Moon 12:24 AM EDT 11:32 AM EDT
Length of Visible Light 12h 56m
Length of Day
12h 10m
Waning Gibbous, 65% of the Moon is Illuminated
Mar 22
Waning Gibbous
Mar 23
Last Quarter
Mar 30
New
Apr 7
First Quarter
Apr 15
Full

Hourly Weather History & Observations

Time (EDT) Temp. Heat Index Dew Point Humidity Pressure Visibility Wind Dir Wind Speed Gust Speed Precip Events Conditions
12:53 AM 75.0 °F - 66.9 °F 76% 30.07 in 10.0 mi SE 11.5 mph - N/A   Mostly Cloudy
1:07 AM 75.0 °F - 66.9 °F 76% 30.07 in 10.0 mi SE 12.7 mph - N/A   Mostly Cloudy
1:43 AM 75.0 °F - 66.9 °F 76% 30.06 in 10.0 mi SE 12.7 mph - N/A   Overcast
1:53 AM 75.0 °F - 66.9 °F 76% 30.06 in 10.0 mi SE 13.8 mph - N/A   Overcast
2:53 AM 73.9 °F - 64.9 °F 73% 30.05 in 10.0 mi SSE 11.5 mph - N/A   Overcast
3:53 AM 73.9 °F - 64.0 °F 71% 30.03 in 10.0 mi SSE 10.4 mph - N/A   Mostly Cloudy
4:53 AM 73.9 °F - 64.9 °F 73% 30.04 in 10.0 mi SSE 9.2 mph - N/A   Mostly Cloudy
5:53 AM 73.9 °F - 66.0 °F 76% 30.05 in 10.0 mi SE 10.4 mph - N/A   Mostly Cloudy
6:53 AM 73.0 °F - 66.0 °F 79% 30.06 in 10.0 mi South 8.1 mph - N/A   Mostly Cloudy
7:07 AM 71.1 °F - 66.9 °F 87% 30.07 in 6.0 mi South 9.2 mph - 0.02 in Rain Light Rain
7:35 AM 71.1 °F - 69.1 °F 93% 30.07 in 10.0 mi SSE 5.8 mph - 0.03 in   Overcast
7:53 AM 71.1 °F - 69.1 °F 93% 30.07 in 10.0 mi SE 6.9 mph - 0.03 in   Mostly Cloudy
8:00 AM 71.1 °F - 69.1 °F 93% 30.08 in 10.0 mi SE 5.8 mph - N/A   Mostly Cloudy
8:18 AM 71.1 °F - 70.0 °F 96% 30.09 in 10.0 mi SE 5.8 mph - N/A   Mostly Cloudy
8:53 AM 72.0 °F - 70.0 °F 93% 30.09 in 10.0 mi ESE 6.9 mph - N/A   Mostly Cloudy
9:53 AM 75.0 °F - 71.1 °F 87% 30.10 in 10.0 mi SSE 5.8 mph - N/A   Clear
10:53 AM 75.9 °F - 69.1 °F 79% 30.10 in 10.0 mi SSW 10.4 mph - 0.01 in Rain Light Rain
11:34 AM 73.9 °F - 71.1 °F 91% 30.10 in 10.0 mi NE 4.6 mph - 0.00 in   Mostly Cloudy
11:53 AM 75.9 °F - 72.0 °F 87% 30.09 in 10.0 mi NE 3.5 mph - 0.00 in   Mostly Cloudy
12:53 PM 81.0 °F 84.1 °F 69.1 °F 67% 30.07 in 10.0 mi SSW 11.5 mph - N/A   Overcast
1:53 PM 79.0 °F - 71.1 °F 77% 30.06 in 10.0 mi SSE 10.4 mph - N/A   Overcast
2:53 PM 80.1 °F 83.6 °F 71.1 °F 74% 30.03 in 10.0 mi SE 8.1 mph - N/A   Mostly Cloudy
3:38 PM 79.0 °F - 72.0 °F 79% 30.01 in 10.0 mi Variable 3.5 mph - N/A   Overcast
3:53 PM 80.1 °F 83.6 °F 71.1 °F 74% 30.01 in 10.0 mi SSE 12.7 mph - N/A   Mostly Cloudy
4:53 PM 82.0 °F 86.7 °F 72.0 °F 71% 30.00 in 10.0 mi SE 13.8 mph - N/A   Overcast
5:09 PM 82.9 °F 88.0 °F 72.0 °F 69% 30.00 in 10.0 mi South 11.5 mph 21.9 mph N/A   Mostly Cloudy
5:20 PM 82.9 °F 86.5 °F 69.1 °F 63% 30.00 in 10.0 mi South 8.1 mph - N/A   Scattered Clouds
5:53 PM 84.0 °F 82.9 °F 55.0 °F 37% 30.00 in 10.0 mi WSW 9.2 mph - N/A   Clear
6:53 PM 82.9 °F - 52.0 °F 34% 30.02 in 10.0 mi WSW 8.1 mph - N/A   Clear
7:53 PM 79.0 °F - 54.0 °F 42% 30.04 in 10.0 mi WSW 6.9 mph - N/A   Clear
8:53 PM 77.0 °F - 54.0 °F 45% 30.05 in 10.0 mi WSW 9.2 mph - N/A   Clear
9:53 PM 75.0 °F - 55.0 °F 50% 30.07 in 10.0 mi SW 8.1 mph - N/A   Clear
10:53 PM 73.0 °F - 53.1 °F 49% 30.08 in 10.0 mi SW 6.9 mph - N/A   Clear
11:53 PM 72.0 °F - 52.0 °F 49% 30.09 in 10.0 mi WSW 5.8 mph - N/A   Clear